Torna al catalogo

HULIANWANG DIGUI-133

AttivoComunicazioniLEO
NORAD 67241·PAYLOAD·🇨🇳 China

Lanciato Dec 25, 2025 da Wenchang Space Launch Site

Loading…

Prossimi Passaggi (prossime 24 ore)

TLE

AggiornatoSource: Space-Track

Epoca: Sep 14, 2026, 03:34 UTC

1 67241U 25311F   26257.14929312 -.00000070  00000-0  11574-3 0  9994
2 67241  50.0098 156.7749 0000269 316.7972  43.2879 13.29327449 35178

Traccia HULIANWANG DIGUI-133 in tempo reale con AllMySat

Download on the App Store